Tracking 22223 objects as of 26-Jan-2021
HD Live streaming from Space Station
objects crossing your sky now

GALAXY 10R

Track GALAXY 10R now!
GALAXY 10R is classified as:


NORAD ID: 26056
Int'l Code: 2000-002A
Perigee: 35,964.4 km
Apogee: 35,978.7 km
Inclination: 9.1 °
Period: 1,445.2 minutes
Semi major axis: 42342 km
RCS: 16.229 m2 (large)
Launch date: January 25, 2000
Source: United States (US)
Launch site: FRENCH GUIANA (FRGUI)

Digital and voice communications; 24 C-band< 24 Ku-band; North America.
aabbcc
Your satellite tracking list
Your tracking list is empty




NASA's NSSDC Master Catalog

Two Line Element Set (TLE):
1 26056U 00002A   21025.69021103  .00000097  00000-0  00000-0 0  9999
2 26056   9.0980  44.0280 0001685  15.3051 164.7592  0.99640943 76719
Source of the keplerian elements: AFSPC